[[{"header":{"parameterUnit":"m.s-1","parameterCategory":1,"la1":30.2991,"la2":30.254,"lo1":-89.0895,"lo2":-89.0444,"dy":0.0017,"dx":0.0017,"nx":28,"ny":28,"refTime":"2024-11-23T03:00:00:Z","depth":0,"parameterNumber":2,"parameterNumberName":"U-component_of_WINDS"},"data":[0,0,0,0,0,0,0,0,0,0,0,0,0,0,0,0,0,0,0,0,0,0,0,0,0,0,0,0,0,0,0,0,0,0,0,0,0,0,0,0,0,0,0,0,0,0,0,0,0,0,0,0,0,0,0,0,0,0,-1.3951,-1.3951,0,-1.3986,-1.3986,-1.3987,-1.4012,-1.4013,-1.4013,-1.4013,-1.4047,-1.4048,-1.4049,0,0,0,0,0,0,0,0,0,0,0,0,0,-1.3903,-1.3904,-1.395,-1.3951,-1.3951,-1.3986,-1.3986,-1.3987,-1.4012,-1.4013,-1.4013,-1.4013,-1.4047,-1.4048,-1.4049,0,0,0,0,0,0,0,0,0,0,0,0,0,-1.393,-1.3904,-1.395,-1.3968,-1.397,-1.3986,-1.3986,-1.3987,-1.4012,-1.4013,-1.4013,-1.4013,-1.4047,-1.4048,-1.4049,-1.4048,0,0,-1.4052,-1.4052,0,0,0,0,0,0,0,0,-1.3928,-1.3931,-1.3965,-1.3967,-1.3969,-1.3995,-1.3982,-1.4007,-1.4012,-1.3996,-1.4013,-1.4013,-1.4029,-1.4032,-1.4038,-1.405,-1.4052,-1.4052,-1.4053,-1.4053,-1.4053,0,0,0,0,0,0,0,-1.3926,-1.393,-1.3964,-1.3966,-1.3968,-1.3974,-1.3978,-1.3987,-1.401,-1.3998,-1.4,-1.4004,-1.4031,-1.4037,-1.4039,-1.4052,-1.4052,-1.4053,-1.4054,-1.4054,-1.4065,-1.4065,0,0,0,0,0,0,-1.3922,-1.3928,-1.3963,-1.3966,-1.3949,-1.3975,-1.3979,-1.3986,-1.4011,-1.4015,-1.4003,-1.4005,-1.4035,-1.4038,-1.404,-1.4041,-1.4053,-1.4054,-1.4055,-1.4066,-1.4065,-1.4065,0,0,0,0,0,0,-1.3921,-1.3925,-1.3962,-1.3948,-1.3953,-1.3975,-1.3983,-1.3987,-1.3993,-1.4015,-1.4019,-1.4005,-1.4035,-1.4039,-1.4046,-1.4042,-1.4055,-1.4056,-1.4066,-1.4066,-1.4065,-1.4042,0,0,0,0,0,0,-1.3919,-1.3924,-1.3925,-1.3947,-1.3953,-1.3968,-1.3983,-1.3987,-1.3995,-1.3997,-1.4018,-1.4021,-1.4036,-1.4045,-1.4047,-1.4044,-1.4056,-1.4067,-1.4066,-1.4065,-1.4044,-1.4041,-1.4039,0,0,0,0,0,-1.3918,-1.3917,-1.3925,-1.3929,-1.3955,-1.3968,-1.3971,-1.3988,-1.3995,-1.3995,-1.4009,-1.4021,-1.4043,-1.4045,-1.4048,-1.4045,-1.4067,-1.4066,-1.4065,-1.4045,-1.4042,-1.4039,0,0,0,0,0,0,-1.3892,-1.392,-1.3929,-1.3936,-1.3949,-1.3972,-1.3973,-1.3985,-1.3996,-1.3997,-1.4017,-1.4022,-1.4027,-1.4037,-1.404,-1.4046,-1.4056,-1.4056,-1.4039,-1.4037,-1.4035,-1.4031,-1.4057,0,0,0,0,0,-1.3888,-1.3897,-1.392,-1.3924,-1.393,-1.395,-1.3957,-1.3969,-1.3983,-1.3989,-1.4003,-1.4016,-1.4026,-1.4032,-1.4042,-1.4046,-1.405,-1.4045,-1.4043,-1.4041,-1.404,-1.4042,-1.404,-1.4063,-1.4063,-1.4063,0,0,-1.3878,-1.3894,-1.3898,-1.3919,-1.3931,-1.3939,-1.3955,-1.3963,-1.3969,-1.399,-1.3998,-1.4009,-1.4025,-1.403,-1.4033,-1.4039,-1.4035,-1.404,-1.4038,-1.4039,-1.4041,-1.4039,-1.4037,-1.4062,-1.4062,-1.4062,0,0,-1.3864,-1.3877,-1.3881,-1.3893,-1.3911,-1.3925,-1.3926,-1.3947,-1.3955,-1.3964,-1.398,-1.3987,-1.4004,-1.4014,-1.4022,-1.4012,-1.4023,-1.4015,-1.4003,-1.4005,-1.4003,-1.4001,-1.3997,-1.3995,-1.4015,-1.4015,-1.4014,0,-1.3849,-1.3862,-1.3882,-1.3889,-1.3897,-1.3918,-1.3921,-1.3932,-1.3952,-1.3957,-1.3963,-1.3984,-1.3996,-1.4004,-1.4002,-1.4008,-1.4009,-1.4012,-1.4002,-1.4,-1.3999,-1.3995,-1.3994,-1.4013,-1.4013,-1.4014,-1.4014,0,-1.3843,-1.3852,-1.3853,-1.3873,-1.3881,-1.3887,-1.3906,-1.3912,-1.3924,-1.3936,-1.3945,-1.396,-1.3974,-1.3977,-1.3988,-1.3986,-1.3989,-1.3998,-1.4008,-1.3995,-1.3992,-1.3991,-1.4012,-1.4012,-1.4012,-1.4013,0,0,-1.3813,-1.3844,-1.3844,-1.3853,-1.3874,-1.3881,-1.3888,-1.3902,-1.3906,-1.392,-1.3924,-1.3938,-1.3947,-1.3956,-1.3968,-1.397,-1.396,-1.3979,-1.3979,-1.3974,-1.3958,-1.395,-1.3948,-1.3968,-1.3968,-1.3968,-1.3956,0,-1.3802,-1.3814,-1.3832,-1.3838,-1.3847,-1.3866,-1.3872,-1.3885,-1.3897,-1.3905,-1.3919,-1.3928,-1.3939,-1.3945,-1.3947,-1.3961,-1.3957,-1.3962,-1.3972,-1.3972,-1.3966,-1.3946,-1.3938,-1.3926,-1.3955,-1.3955,-1.3955,0,-1.379,-1.3802,-1.381,-1.3831,-1.3835,-1.3839,-1.3853,-1.3861,-1.3877,-1.3886,-1.3895,-1.3909,-1.3916,-1.3926,-1.3935,-1.3938,-1.3943,-1.3951,-1.395,-1.3951,-1.3961,-1.3945,-1.3923,-1.3921,-1.3953,-1.3953,-1.3953,0,-1.3766,-1.3785,-1.3792,-1.3799,-1.3824,-1.3826,-1.3837,-1.3853,-1.386,-1.3872,-1.3877,-1.3889,-1.3896,-1.3905,-1.3922,-1.3928,-1.3929,-1.394,-1.3935,-1.3935,-1.3933,-1.3933,-1.391,-1.3939,-1.3939,-1.3939,-1.3939,0,-1.375,-1.3754,-1.3781,-1.3785,-1.379,-1.381,-1.3813,-1.3826,-1.384,-1.3846,-1.3864,-1.3869,-1.3891,-1.3899,-1.3912,-1.3917,-1.392,-1.3926,-1.393,-1.3924,-1.3923,-1.3927,-1.3928,-1.3938,-1.3938,-1.3938,-1.3938,0,-1.3724,-1.3743,-1.3751,-1.3774,-1.378,-1.3782,-1.3802,-1.3806,-1.3819,-1.3827,-1.383,-1.3851,-1.3861,-1.3879,-1.3893,-1.3902,-1.3904,-1.391,-1.3899,-1.3901,-1.3894,-1.3894,-1.3872,-1.387,-1.3901,-1.39,-1.39,0,-1.3712,-1.3715,-1.3739,-1.3745,-1.3754,-1.3764,-1.3771,-1.3791,-1.3798,-1.3817,-1.3818,-1.383,-1.384,-1.3855,-1.3871,-1.3882,-1.3888,-1.388,-1.389,-1.3884,-1.3887,-1.3886,-1.3886,-1.3877,-1.3877,-1.3876,-1.3876,0,-1.3689,-1.3698,-1.3709,-1.3722,-1.3731,-1.3743,-1.3755,-1.3759,-1.3782,-1.3789,-1.38,-1.3808,-1.3823,-1.3834,-1.3848,-1.3858,-1.387,-1.3873,-1.3872,-1.3866,-1.3859,-1.3861,-1.3891,-1.3873,-1.3873,-1.3874,-1.3874,-1.3874,-1.3669,-1.3672,-1.3689,-1.37,-1.3712,-1.3723,-1.3729,-1.3743,-1.3753,-1.3767,-1.3779,-1.3788,-1.3804,-1.3824,-1.3833,-1.384,-1.3846,-1.3845,-1.3845,-1.3844,-1.3841,-1.3859,-1.3843,-1.3843,-1.3843,-1.3843,-1.3843,0,-1.3645,-1.3658,-1.3668,-1.3685,-1.3693,-1.3706,-1.372,-1.3726,-1.3735,-1.3749,-1.3759,-1.3771,-1.3781,-1.3799,-1.3811,-1.3813,-1.3819,-1.3815,-1.3815,-1.3816,-1.3836,-1.3835,-1.381,-1.381,-1.381,-1.381,-1.381,-1.381,-1.3634,-1.364,-1.3652,-1.3664,-1.3676,-1.3686,-1.3693,-1.3704,-1.3715,-1.3727,-1.3737,-1.3748,-1.3763,-1.3776,-1.3787,-1.3791,-1.3794,-1.3788,-1.3795,-1.3812,-1.3815,-1.3818,-1.3817,-1.3789,-1.3789,-1.3775,-1.3775,-1.3775]},{"header":{"parameterUnit":"m.s-1","parameterCategory":1,"la1":30.2991,"la2":30.254,"lo1":-89.0895,"lo2":-89.0444,"dy":0.0017,"dx":0.0017,"nx":28,"ny":28,"refTime":"2024-11-23T03:00:00:Z","depth":0,"parameterNumber":3,"parameterNumberName":"V-component_of_WINDS"},"data":[0,0,0,0,0,0,0,0,0,0,0,0,0,0,0,0,0,0,0,0,0,0,0,0,0,0,0,0,0,0,0,0,0,0,0,0,0,0,0,0,0,0,0,0,0,0,0,0,0,0,0,0,0,0,0,0,0,0,3.6796,3.6795,0,3.6783,3.6783,3.6783,3.6693,3.6691,3.6688,3.6686,3.6675,3.6676,3.6678,0,0,0,0,0,0,0,0,0,0,0,0,0,3.6741,3.6742,3.6796,3.6795,3.6795,3.6783,3.6783,3.6783,3.6693,3.669,3.6688,3.6685,3.6674,3.6676,3.6678,0,0,0,0,0,0,0,0,0,0,0,0,0,3.675,3.6743,3.6796,3.6749,3.6745,3.6784,3.6783,3.6783,3.6694,3.669,3.6687,3.6684,3.6673,3.6676,3.6679,3.6762,0,0,3.6687,3.6688,0,0,0,0,0,0,0,0,3.675,3.6752,3.6756,3.6752,3.6747,3.6736,3.676,3.6776,3.6695,3.6713,3.6686,3.6682,3.6698,3.6698,3.6703,3.6761,3.6761,3.6687,3.6689,3.669,3.669,0,0,0,0,0,0,0,3.6749,3.6752,3.6791,3.6756,3.6751,3.6729,3.6726,3.6762,3.6724,3.6711,3.6705,3.6704,3.6695,3.6701,3.6702,3.676,3.6687,3.6689,3.6691,3.6692,3.6884,3.6888,0,0,0,0,0,0,3.6755,3.6752,3.6791,3.679,3.674,3.6732,3.673,3.6743,3.6724,3.6718,3.6707,3.67,3.6698,3.6699,3.6702,3.6796,3.669,3.6692,3.6694,3.6881,3.6885,3.6889,0,0,0,0,0,0,3.6754,3.6759,3.6792,3.677,3.6772,3.6737,3.6753,3.6745,3.6751,3.6721,3.6713,3.672,3.6696,3.6698,3.6747,3.6795,3.6693,3.6696,3.6877,3.6882,3.6887,3.6987,0,0,0,0,0,0,3.6753,3.676,3.6791,3.6771,3.6774,3.6837,3.6756,3.6747,3.6755,3.6746,3.6731,3.6726,3.6693,3.6744,3.675,3.6796,3.6698,3.6872,3.6879,3.6885,3.6979,3.6995,3.7009,0,0,0,0,0,3.6751,3.682,3.6793,3.6798,3.6812,3.684,3.6842,3.6803,3.676,3.679,3.6771,3.6726,3.6789,3.6749,3.6755,3.6804,3.6869,3.6877,3.6885,3.6973,3.6992,3.7008,0,0,0,0,0,0,3.6847,3.6817,3.6786,3.6851,3.6849,3.6825,3.6863,3.6825,3.6835,3.6826,3.6778,3.6775,3.6831,3.6823,3.6779,3.6882,3.6821,3.6831,3.6886,3.6904,3.6918,3.6919,3.67,0,0,0,0,0,3.6876,3.6901,3.6873,3.6933,3.6933,3.6899,3.691,3.688,3.6876,3.6875,3.6859,3.6857,3.6876,3.689,3.6906,3.6978,3.6973,3.7014,3.7029,3.7041,3.705,3.7086,3.7104,3.6915,3.6915,3.6915,0,0,3.6935,3.6922,3.6941,3.6952,3.6947,3.6974,3.6899,3.6931,3.695,3.688,3.6924,3.6913,3.6908,3.6969,3.6994,3.6963,3.7101,3.7051,3.7061,3.7063,3.7096,3.7114,3.713,3.692,3.6919,3.6918,0,0,3.7056,3.705,3.7097,3.7094,3.7087,3.7063,3.7075,3.7057,3.7046,3.709,3.7037,3.706,3.7095,3.7093,3.7096,3.7217,3.7175,3.7223,3.7299,3.7335,3.735,3.7363,3.7405,3.742,3.7232,3.7232,3.7233,0,3.7131,3.717,3.7127,3.7162,3.7168,3.7105,3.7153,3.7152,3.7151,3.7156,3.7121,3.7162,3.7154,3.7213,3.7242,3.7248,3.7259,3.7224,3.7352,3.7364,3.7375,3.7415,3.743,3.7238,3.7238,3.7237,3.7236,0,3.7261,3.7289,3.7328,3.7328,3.7338,3.738,3.7343,3.7359,3.7329,3.7309,3.7354,3.7343,3.7355,3.7367,3.7338,3.7421,3.7402,3.736,3.7297,3.74,3.7436,3.7451,3.7246,3.7244,3.7243,3.7241,0,0,3.7442,3.7417,3.7432,3.743,3.7418,3.7438,3.7477,3.7488,3.7502,3.7504,3.7535,3.7565,3.7526,3.753,3.75,3.7532,3.7626,3.7486,3.7485,3.7511,3.7716,3.7747,3.7765,3.7599,3.7602,3.7604,3.7716,0,3.7557,3.7621,3.7583,3.7652,3.7677,3.7617,3.765,3.7647,3.7629,3.7647,3.7628,3.765,3.7597,3.7599,3.7628,3.7609,3.7667,3.76,3.7627,3.7628,3.7628,3.7784,3.7816,3.7922,3.773,3.7733,3.7734,0,3.77,3.7707,3.7778,3.776,3.7769,3.7799,3.7806,3.7824,3.7819,3.7803,3.7808,3.777,3.7806,3.7746,3.7795,3.775,3.7759,3.7751,3.7754,3.7754,3.7686,3.7786,3.7955,3.7971,3.7756,3.7754,3.7753,0,3.7823,3.785,3.7896,3.7897,3.7877,3.7899,3.7892,3.7883,3.7892,3.7898,3.7903,3.7914,3.792,3.7929,3.7895,3.7854,3.7948,3.7885,3.7936,3.7937,3.7958,3.7957,3.8129,3.7966,3.7966,3.7966,3.7965,0,3.7955,3.8,3.795,3.7978,3.8028,3.7984,3.8034,3.8021,3.8013,3.8037,3.7987,3.8011,3.7966,3.7985,3.7959,3.8003,3.8006,3.7995,3.7987,3.7998,3.8,3.8002,3.7994,3.797,3.7969,3.7968,3.7967,0,3.81,3.8068,3.8114,3.8091,3.8086,3.8124,3.8104,3.8129,3.8108,3.8139,3.8144,3.8112,3.8132,3.8099,3.8116,3.8098,3.8159,3.8141,3.816,3.8154,3.8207,3.8202,3.8386,3.8408,3.8233,3.8235,3.8236,0,3.8185,3.8219,3.8199,3.8211,3.8207,3.8228,3.8236,3.8195,3.8205,3.8201,3.8227,3.8242,3.8253,3.8288,3.8266,3.8278,3.8259,3.8322,3.826,3.827,3.8258,3.8256,3.8258,3.8335,3.8337,3.8339,3.834,0,3.834,3.8322,3.8336,3.8344,3.8355,3.836,3.8361,3.8374,3.833,3.8345,3.8364,3.8373,3.8389,3.8405,3.8412,3.8405,3.8365,3.836,3.8372,3.8383,3.8393,3.8387,3.8194,3.8356,3.8354,3.8353,3.8352,3.8351,3.8456,3.8482,3.8472,3.8489,3.8485,3.8487,3.8509,3.8491,3.8506,3.8515,3.8491,3.8516,3.8509,3.8514,3.8511,3.853,3.8502,3.852,3.8525,3.8529,3.8537,3.8391,3.8531,3.8531,3.8531,3.853,3.853,0,3.8607,3.8597,3.8613,3.8615,3.8628,3.859,3.8589,3.8602,3.8625,3.8621,3.8632,3.8654,3.867,3.8649,3.866,3.868,3.8662,3.8684,3.8682,3.868,3.8562,3.855,3.8698,3.8698,3.8698,3.8698,3.8698,3.8698,3.8686,3.8728,3.871,3.8749,3.8739,3.8763,3.8766,3.8767,3.8764,3.879,3.8803,3.8789,3.8778,3.8788,3.8801,3.8794,3.88,3.8829,3.8816,3.8706,3.8689,3.8673,3.8661,3.8831,3.8831,3.8932,3.8933,3.8934]}]]